User: anonymous   Login
Location: Wellington
(41.3000°S, 174.7830°E)
Time: 01:22:32
(UTC+13:00)
Language:

Helios 1B rocket - Orbit

View from above orbital plane
View from above orbital plane
View from above satellite
View from above satellite

Ground track
Ground track

The orbit data is extracted from the following two-line orbital elements,

1 25979U 99064C   19084.18590309  .00000726  00000-0  70955-4 0  9992
2 25979  98.1700 339.0261 0006106 354.4952   5.6199 14.95690821 46733
Epoch (UTC): 25 March 2019 04:27:42
Eccentricity: 0.0006106
inclination: 98.1700°
perigee height: 576 km
apogee height: 584 km
right ascension of ascending node: 339.0261°
argument of perigee: 354.4952°
revolutions per day: 14.95690821
mean anomaly at epoch: 5.6199°
orbit number at epoch: 4673

The dashed part of the orbit path shows where the satellite is in the earth's shadow,  

DLR